| time (UTC) | temp F | wind direction | speed knots | gust knots | rain 1hr in | rain 24hr in | rain mn in | humidity % | barometer mb |
| 20260906121103 | 67 | 35 | 0.0 | 0.0 | 0.00 | 0.00 | 0.00 | 99 | 1018.8 |
| 20260906120602 | 66 | 35 | 0.0 | 0.0 | 0.00 | 0.00 | 0.00 | 99 | 1018.8 |
| 20260906120100 | 66 | 35 | 0.0 | 0.0 | 0.00 | 0.00 | 0.00 | 99 | 1018.7 |
| 20260906115555 | 66 | 35 | 0.0 | 0.0 | 0.00 | 0.00 | 0.00 | 99 | 1018.5 |
| 20260906115050 | 66 | 35 | 0.0 | 0.0 | 0.00 | 0.00 | 0.00 | 99 | 1018.4 |
| 20260906114549 | 66 | 35 | 0.0 | 0.0 | 0.00 | 0.00 | 0.00 | 99 | 1018.5 |
| 20260906114045 | 66 | 35 | 0.0 | 0.0 | 0.00 | 0.00 | 0.00 | 99 | 1018.3 |
| 20260906113544 | 66 | 35 | 0.0 | 0.0 | 0.00 | 0.00 | 0.00 | 99 | 1018.1 |
| 20260906113039 | 66 | 35 | 0.0 | 0.0 | 0.00 | 0.00 | 0.00 | 99 | 1018.3 |
| 20260906112534 | 66 | 35 | 0.0 | 0.0 | 0.00 | 0.00 | 0.00 | 99 | 1018.2 |
| 20260906112030 | 66 | 35 | 0.0 | 0.0 | 0.00 | 0.00 | 0.00 | 99 | 1018.1 |
| 20260906111524 | 66 | 35 | 0.0 | 0.0 | 0.00 | 0.00 | 0.00 | 99 | 1018.1 |
| 20260906111020 | 66 | 35 | 0.0 | 0.0 | 0.00 | 0.00 | 0.00 | 99 | 1018.1 |
| 20260906110519 | 66 | 35 | 0.0 | 0.0 | 0.00 | 0.00 | 0.00 | 99 | 1018.0 |
| 20260906110019 | 66 | 35 | 0.0 | 0.0 | 0.00 | 0.00 | 0.00 | 99 | 1018.1 |
| 20260906105514 | 66 | 35 | 0.0 | 0.0 | 0.00 | 0.00 | 0.00 | 99 | 1018.0 |
| 20260906105010 | 66 | 35 | 0.0 | 0.0 | 0.00 | 0.00 | 0.00 | 99 | 1017.8 |
| 20260906104509 | 66 | 35 | 0.0 | 0.0 | 0.00 | 0.00 | 0.00 | 99 | 1017.7 |
| 20260906104009 | 66 | 35 | 0.0 | 0.0 | 0.00 | 0.00 | 0.00 | 99 | 1017.8 |
| 20260906103507 | 66 | 35 | 0.0 | 0.0 | 0.00 | 0.00 | 0.00 | 98 | 1017.7 |
| 20260906103002 | 66 | 35 | 0.0 | 0.0 | 0.00 | 0.00 | 0.00 | 98 | 1017.6 |
| 20260906102457 | 66 | 35 | 0.0 | 0.0 | 0.00 | 0.00 | 0.00 | 98 | 1017.5 |
| 20260906101956 | 66 | 35 | 0.0 | 0.0 | 0.00 | 0.00 | 0.00 | 98 | 1017.5 |
| 20260906101452 | 66 | 35 | 0.0 | 0.0 | 0.00 | 0.00 | 0.00 | 98 | 1017.6 |
| 20260906100947 | 66 | 36 | 0.0 | 0.0 | 0.00 | 0.00 | 0.00 | 98 | 1017.1 |
| 20260906100442 | 66 | 37 | 0.0 | 0.0 | 0.00 | 0.00 | 0.00 | 98 | 1017.3 |
| 20260906095942 | 66 | 37 | 0.0 | 0.0 | 0.00 | 0.00 | 0.00 | 98 | 1017.5 |
| 20260906095437 | 66 | 37 | 0.0 | 0.0 | 0.00 | 0.00 | 0.00 | 98 | 1017.4 |
| 20260906094932 | 67 | 37 | 0.0 | 0.0 | 0.00 | 0.00 | 0.00 | 98 | 1017.5 |
| 20260906094426 | 67 | 53 | 0.0 | 0.0 | 0.00 | 0.00 | 0.00 | 98 | 1017.5 |
| 20260906093923 | 67 | 53 | 0.0 | 0.0 | 0.00 | 0.00 | 0.00 | 98 | 1017.3 |
| 20260906093419 | 67 | 53 | 0.0 | 0.0 | 0.00 | 0.00 | 0.00 | 98 | 1017.6 |
| 20260906092918 | 68 | 53 | 0.0 | 0.0 | 0.00 | 0.00 | 0.00 | 98 | 1017.5 |
| 20260906092412 | 68 | 53 | 0.0 | 0.0 | 0.00 | 0.00 | 0.00 | 98 | 1017.5 |
| 20260906091908 | 68 | 53 | 0.0 | 0.0 | 0.00 | 0.00 | 0.00 | 98 | 1017.4 |
| 20260906091403 | 68 | 53 | 0.0 | 0.0 | 0.00 | 0.00 | 0.00 | 98 | 1017.5 |
| 20260906090901 | 68 | 53 | 0.0 | 0.0 | 0.00 | 0.00 | 0.00 | 98 | 1017.3 |
| 20260906090400 | 68 | 53 | 0.0 | 0.0 | 0.00 | 0.00 | 0.00 | 98 | 1017.3 |
| 20260906085854 | 68 | 53 | 0.0 | 0.0 | 0.00 | 0.00 | 0.00 | 98 | 1017.4 |
| 20260906085353 | 68 | 49 | 0.0 | 0.0 | 0.00 | 0.00 | 0.00 | 97 | 1017.4 |
| 20260906084843 | 68 | 49 | 0.0 | 0.0 | 0.00 | 0.00 | 0.00 | 97 | 1017.3 |
| 20260906084342 | 68 | 38 | 0.0 | 0.0 | 0.00 | 0.00 | 0.00 | 97 | 1017.5 |
| 20260906083836 | 68 | 45 | 0.0 | 0.0 | 0.00 | 0.00 | 0.00 | 97 | 1017.4 |
| 20260906083332 | 68 | 34 | 0.0 | 0.0 | 0.00 | 0.00 | 0.00 | 97 | 1017.5 |
| 20260906082832 | 68 | 41 | 0.0 | 0.0 | 0.00 | 0.00 | 0.00 | 97 | 1017.2 |
| 20260906082327 | 68 | 41 | 0.0 | 0.0 | 0.00 | 0.00 | 0.00 | 97 | 1017.4 |
| 20260906081823 | 68 | 33 | 0.0 | 0.0 | 0.00 | 0.00 | 0.00 | 97 | 1017.3 |
| 20260906081319 | 68 | 33 | 0.0 | 0.0 | 0.00 | 0.00 | 0.00 | 97 | 1017.6 |
| 20260906080814 | 68 | 33 | 0.0 | 0.0 | 0.00 | 0.00 | 0.00 | 97 | 1017.2 |
| 20260906080311 | 68 | 48 | 0.0 | 0.0 | 0.00 | 0.00 | 0.00 | 97 | 1017.2 |
| 20260906075805 | 69 | 44 | 0.0 | 0.0 | 0.00 | 0.00 | 0.00 | 97 | 1017.3 |
| 20260906075306 | 69 | 44 | 0.0 | 0.0 | 0.00 | 0.00 | 0.00 | 97 | 1017.1 |
| 20260906074800 | 69 | 44 | 0.0 | 0.0 | 0.00 | 0.00 | 0.00 | 97 | 1017.2 |
| 20260906074259 | 69 | 42 | 0.0 | 0.0 | 0.00 | 0.00 | 0.00 | 97 | 1017.2 |
| 20260906073758 | 69 | 44 | 0.0 | 0.0 | 0.00 | 0.00 | 0.00 | 97 | 1017.4 |
| 20260906073253 | 69 | 49 | 0.0 | 0.0 | 0.00 | 0.00 | 0.00 | 97 | 1017.2 |
| 20260906072749 | 69 | 49 | 0.0 | 0.0 | 0.00 | 0.00 | 0.00 | 97 | 1017.2 |
| 20260906072244 | 69 | 49 | 0.0 | 0.0 | 0.00 | 0.00 | 0.00 | 97 | 1017.2 |
| 20260906071740 | 69 | 49 | 0.0 | 0.0 | 0.00 | 0.00 | 0.00 | 97 | 1017.4 |
| 20260906071240 | 69 | 49 | 0.0 | 0.0 | 0.00 | 0.00 | 0.00 | 97 | 1017.2 |
| 20260906070737 | 69 | 49 | 0.0 | 0.0 | 0.00 | 0.00 | 0.00 | 97 | 1017.4 |
| 20260906070232 | 69 | 48 | 0.0 | 0.0 | 0.00 | 0.00 | 0.00 | 97 | 1017.5 |
| 20260906065732 | 69 | 49 | 0.0 | 0.0 | 0.00 | 0.00 | 0.00 | 98 | 1017.3 |
| 20260906065227 | 69 | 49 | 0.0 | 0.0 | 0.00 | 0.00 | 0.00 | 98 | 1017.5 |
| 20260906064722 | 69 | 37 | 0.0 | 0.0 | 0.00 | 0.00 | 0.00 | 98 | 1017.2 |
| 20260906064218 | 69 | 37 | 0.0 | 0.0 | 0.00 | 0.00 | 0.00 | 98 | 1017.3 |
| 20260906063713 | 69 | 37 | 0.0 | 0.0 | 0.00 | 0.00 | 0.00 | 98 | 1017.0 |
| 20260906063209 | 69 | 37 | 0.0 | 0.0 | 0.00 | 0.00 | 0.00 | 97 | 1017.3 |
| 20260906062704 | 69 | 37 | 0.0 | 0.0 | 0.00 | 0.00 | 0.00 | 97 | 1017.3 |
| 20260906062203 | 69 | 37 | 0.0 | 0.0 | 0.00 | 0.00 | 0.00 | 97 | 1017.4 |
| 20260906061659 | 69 | 37 | 0.0 | 0.0 | 0.00 | 0.00 | 0.00 | 97 | 1017.4 |
| 20260906061154 | 69 | 39 | 0.0 | 0.0 | 0.00 | 0.00 | 0.00 | 97 | 1017.2 |
| 20260906060651 | 69 | 38 | 0.0 | 0.0 | 0.00 | 0.00 | 0.00 | 97 | 1017.0 |
| 20260906060148 | 69 | 38 | 0.0 | 0.0 | 0.00 | 0.00 | 0.00 | 97 | 1017.3 |
| 20260906055643 | 69 | 41 | 0.0 | 0.0 | 0.00 | 0.00 | 0.00 | 97 | 1017.3 |
| 20260906055138 | 69 | 44 | 0.0 | 0.0 | 0.00 | 0.00 | 0.00 | 97 | 1017.3 |
| 20260906054633 | 69 | 44 | 0.0 | 0.0 | 0.00 | 0.00 | 0.00 | 97 | 1017.3 |
| 20260906054128 | 69 | 45 | 0.0 | 0.0 | 0.00 | 0.00 | 0.00 | 97 | 1017.2 |
| 20260906053625 | 69 | 45 | 0.0 | 0.0 | 0.00 | 0.00 | 0.00 | 97 | 1017.3 |
| 20260906053120 | 69 | 45 | 0.0 | 0.0 | 0.00 | 0.00 | 0.00 | 97 | 1017.0 |
| 20260906052615 | 69 | 45 | 0.0 | 0.0 | 0.00 | 0.00 | 0.00 | 96 | 1016.8 |
| 20260906052112 | 70 | 46 | 0.0 | 0.0 | 0.00 | 0.00 | 0.00 | 96 | 1016.9 |
| 20260906051608 | 70 | 49 | 0.0 | 0.0 | 0.00 | 0.00 | 0.00 | 96 | 1016.9 |
| 20260906051103 | 70 | 46 | 0.0 | 0.0 | 0.00 | 0.00 | 0.00 | 96 | 1016.9 |
| 20260906050558 | 70 | 36 | 0.0 | 0.0 | 0.00 | 0.00 | 0.00 | 96 | 1016.7 |
| 20260906050053 | 70 | 37 | 0.0 | 0.0 | 0.00 | 0.00 | 0.00 | 96 | 1016.8 |
| 20260906045551 | 70 | 41 | 0.0 | 0.0 | 0.00 | 0.00 | 0.00 | 96 | 1017.0 |
| 20260906045047 | 71 | 81 | 0.0 | 1.7 | 0.00 | 0.00 | 0.00 | 96 | 1016.9 |
| 20260906044542 | 71 | 35 | 0.0 | 0.0 | 0.00 | 0.00 | 0.00 | 96 | 1016.9 |
| 20260906044038 | 71 | 37 | 0.0 | 0.0 | 0.00 | 0.00 | 0.00 | 96 | 1016.7 |
| 20260906043533 | 71 | 18 | 0.0 | 0.0 | 0.00 | 0.00 | 0.00 | 96 | 1016.6 |
| 20260906043030 | 71 | 26 | 0.0 | 0.0 | 0.00 | 0.00 | 0.00 | 96 | 1016.8 |
| 20260906042528 | 71 | 29 | 0.0 | 0.0 | 0.00 | 0.00 | 0.00 | 96 | 1016.5 |
| 20260906042022 | 71 | 28 | 0.0 | 0.0 | 0.00 | 0.00 | 0.00 | 96 | 1016.5 |
| 20260906041519 | 71 | 44 | 0.0 | 0.0 | 0.00 | 0.00 | 0.00 | 95 | 1016.2 |
| 20260906041019 | 71 | 75 | 0.0 | 0.0 | 0.00 | 0.00 | 0.00 | 96 | 1016.5 |
| 20260906040514 | 71 | 26 | 2.6 | 4.3 | 0.00 | 0.00 | 0.00 | 95 | 1016.5 |
| 20260906040010 | 71 | 46 | 0.0 | 1.7 | 0.00 | 0.00 | 0.00 | 95 | 1016.4 |
| 20260906035504 | 71 | 62 | 0.0 | 2.6 | 0.00 | 0.00 | 0.00 | 95 | 1016.4 |
| 20260906035000 | 71 | 34 | 0.0 | 0.0 | 0.00 | 0.00 | 0.00 | 95 | 1016.3 |
| 20260906034500 | 71 | 188 | 0.0 | 0.0 | 0.00 | 0.00 | 0.00 | 95 | 1016.5 |
| 20260906033955 | 71 | 39 | 0.0 | 0.0 | 0.00 | 0.00 | 0.00 | 95 | 1016.5 |
| 20260906033450 | 71 | 51 | 0.0 | 0.0 | 0.00 | 0.00 | 0.00 | 95 | 1016.3 |
| 20260906032945 | 71 | 37 | 0.0 | 0.0 | 0.00 | 0.00 | 0.00 | 95 | 1016.3 |
| 20260906032443 | 71 | 36 | 0.0 | 0.0 | 0.00 | 0.00 | 0.00 | 95 | 1016.4 |
| 20260906031942 | 71 | 46 | 0.0 | 0.0 | 0.00 | 0.00 | 0.00 | 95 | 1016.5 |
| 20260906031437 | 71 | 45 | 0.0 | 1.7 | 0.00 | 0.00 | 0.00 | 95 | 1016.4 |
| 20260906030933 | 71 | 47 | 2.6 | 2.6 | 0.00 | 0.00 | 0.00 | 95 | 1015.9 |
| 20260906030427 | 71 | 50 | 0.0 | 0.0 | 0.00 | 0.00 | 0.00 | 96 | 1016.4 |
| 20260906025922 | 71 | 25 | 0.0 | 0.0 | 0.00 | 0.00 | 0.00 | 96 | 1016.5 |
| 20260906025416 | 71 | 76 | 0.0 | 0.0 | 0.00 | 0.00 | 0.00 | 96 | 1016.3 |
| 20260906024915 | 71 | 30 | 2.6 | 4.3 | 0.00 | 0.00 | 0.00 | 96 | 1016.4 |
| 20260906024414 | 71 | 27 | 0.0 | 0.0 | 0.00 | 0.00 | 0.00 | 96 | 1016.3 |
| 20260906023910 | 71 | 17 | 1.7 | 2.6 | 0.00 | 0.00 | 0.00 | 96 | 1016.3 |
| 20260906023406 | 71 | 16 | 0.0 | 2.6 | 0.00 | 0.00 | 0.00 | 96 | 1016.2 |
| 20260906022906 | 71 | 35 | 0.0 | 1.7 | 0.00 | 0.00 | 0.00 | 96 | 1016.0 |
| 20260906022401 | 71 | 62 | 0.0 | 1.7 | 0.00 | 0.00 | 0.00 | 96 | 1016.4 |
| 20260906021857 | 71 | 47 | 1.7 | 2.6 | 0.00 | 0.00 | 0.00 | 96 | 1016.4 |
| 20260906021356 | 71 | 58 | 0.9 | 2.6 | 0.00 | 0.00 | 0.00 | 96 | 1016.3 |
| 20260906020851 | 71 | 17 | 0.0 | 1.7 | 0.00 | 0.00 | 0.00 | 96 | 1016.4 |
| 20260906020350 | 71 | 95 | 1.7 | 2.6 | 0.00 | 0.00 | 0.00 | 96 | 1016.5 |
| 20260906015845 | 72 | 64 | 0.0 | 0.0 | 0.00 | 0.00 | 0.00 | 96 | 1016.4 |
| 20260906015345 | 72 | 40 | 0.9 | 1.7 | 0.00 | 0.00 | 0.00 | 96 | 1016.4 |
| 20260906014844 | 72 | 40 | 0.0 | 0.0 | 0.00 | 0.00 | 0.00 | 95 | 1016.5 |
| 20260906014344 | 72 | 73 | 1.7 | 2.6 | 0.00 | 0.00 | 0.00 | 95 | 1016.5 |
| 20260906013841 | 72 | 63 | 3.5 | 6.1 | 0.00 | 0.00 | 0.00 | 95 | 1016.5 |
| 20260906013336 | 72 | 63 | 3.5 | 6.1 | 0.00 | 0.00 | 0.00 | 94 | 1016.3 |
| 20260906012831 | 72 | 37 | 0.0 | 1.7 | 0.00 | 0.00 | 0.00 | 94 | 1016.4 |
| 20260906012326 | 72 | 41 | 0.9 | 1.7 | 0.00 | 0.00 | 0.00 | 94 | 1016.3 |
| 20260906011821 | 72 | 69 | 0.0 | 1.7 | 0.00 | 0.00 | 0.00 | 94 | 1016.4 |
| 20260906011315 | 72 | 2 | 0.0 | 2.6 | 0.00 | 0.00 | 0.00 | 94 | 1016.2 |
| 20260906010811 | 72 | 62 | 0.9 | 2.6 | 0.00 | 0.00 | 0.00 | 94 | 1016.2 |
| 20260906010307 | 72 | 40 | 0.0 | 1.7 | 0.00 | 0.00 | 0.00 | 93 | 1016.0 |
| 20260906005802 | 72 | 48 | 2.6 | 2.6 | 0.00 | 0.00 | 0.00 | 93 | 1015.9 |
| 20260906005301 | 72 | 58 | 0.0 | 0.0 | 0.00 | 0.00 | 0.00 | 94 | 1015.8 |
| 20260906004800 | 72 | 84 | 1.7 | 6.1 | 0.00 | 0.00 | 0.00 | 93 | 1015.6 |
| 20260906004255 | 72 | 17 | 0.0 | 2.6 | 0.00 | 0.00 | 0.00 | 94 | 1016.0 |
| 20260906003755 | 72 | 57 | 0.0 | 1.7 | 0.00 | 0.00 | 0.00 | 94 | 1015.8 |
| 20260906003251 | 72 | 17 | 0.0 | 2.6 | 0.00 | 0.00 | 0.00 | 94 | 1016.0 |
| 20260906002746 | 72 | 21 | 0.0 | 0.0 | 0.00 | 0.00 | 0.00 | 95 | 1015.6 |
| 20260906002246 | 72 | 110 | 0.0 | 1.7 | 0.00 | 0.00 | 0.00 | 95 | 1015.3 |
| 20260906001742 | 72 | 90 | 0.9 | 2.6 | 0.00 | 0.00 | 0.00 | 95 | 1015.6 |
| 20260906001237 | 72 | 15 | 1.7 | 6.1 | 0.00 | 0.00 | 0.00 | 95 | 1015.8 |
| 20260906000732 | 72 | 340 | 0.9 | 7.0 | 0.00 | 0.00 | 0.00 | 95 | 1015.6 |
| 20260906000227 | 72 | 6 | 0.9 | 1.7 | 0.00 | 0.00 | 0.00 | 95 | 1015.7 |
| 20260905235727 | 72 | 357 | 0.0 | 1.7 | 0.00 | 0.00 | 0.00 | 95 | 1015.9 |
| 20260905235221 | 72 | 338 | 0.0 | 1.7 | 0.00 | 0.00 | 0.00 | 95 | 1015.4 |
| 20260905234717 | 72 | 111 | 2.6 | 6.1 | 0.00 | 0.00 | 0.00 | 94 | 1015.6 |
| 20260905234212 | 72 | 63 | 2.6 | 2.6 | 0.00 | 0.00 | 0.00 | 94 | 1015.9 |
| 20260905233707 | 72 | 34 | 0.9 | 1.7 | 0.00 | 0.00 | 0.00 | 94 | 1015.5 |
| 20260905233207 | 72 | 15 | 0.0 | 2.6 | 0.00 | 0.00 | 0.00 | 94 | 1015.7 |
| 20260905232702 | 72 | 205 | 1.7 | 7.0 | 0.00 | 0.00 | 0.00 | 94 | 1015.8 |
| 20260905232157 | 72 | 156 | 0.9 | 2.6 | 0.00 | 0.00 | 0.00 | 94 | 1015.7 |
| 20260905231653 | 72 | 19 | 0.0 | 1.7 | 0.00 | 0.00 | 0.00 | 94 | 1015.9 |
| 20260905231148 | 72 | 309 | 0.0 | 2.6 | 0.00 | 0.00 | 0.00 | 94 | 1015.6 |
| 20260905230644 | 72 | 31 | 0.9 | 2.6 | 0.00 | 0.00 | 0.00 | 94 | 1015.6 |
| 20260905230142 | 72 | 41 | 1.7 | 2.6 | 0.00 | 0.00 | 0.00 | 94 | 1015.5 |
| 20260905225642 | 72 | 45 | 0.0 | 4.3 | 0.00 | 0.00 | 0.00 | 94 | 1015.5 |
| 20260905225142 | 72 | 89 | 0.9 | 2.6 | 0.00 | 0.00 | 0.00 | 94 | 1015.2 |
| 20260905224642 | 72 | 130 | 0.9 | 1.7 | 0.00 | 0.00 | 0.00 | 94 | 1015.4 |
| 20260905224141 | 72 | 71 | 0.9 | 2.6 | 0.00 | 0.00 | 0.00 | 94 | 1015.8 |
| 20260905223638 | 72 | 13 | 1.7 | 2.6 | 0.00 | 0.00 | 0.00 | 94 | 1015.7 |
| 20260905223135 | 73 | 49 | 1.7 | 6.1 | 0.00 | 0.00 | 0.00 | 94 | 1015.7 |
| 20260905222630 | 73 | 206 | 0.9 | 4.3 | 0.00 | 0.00 | 0.00 | 94 | 1015.5 |
| 20260905222125 | 73 | 82 | 0.0 | 1.7 | 0.00 | 0.00 | 0.00 | 94 | 1015.5 |
| 20260905221621 | 73 | 78 | 0.9 | 2.6 | 0.00 | 0.00 | 0.00 | 93 | 1015.5 |
| 20260905221117 | 74 | 334 | 0.9 | 4.3 | 0.00 | 0.00 | 0.00 | 93 | 1015.5 |
| 20260905220613 | 74 | 98 | 0.9 | 6.1 | 0.00 | 0.00 | 0.00 | 93 | 1015.4 |
| 20260905220109 | 74 | 88 | 0.9 | 2.6 | 0.00 | 0.00 | 0.00 | 93 | 1015.5 |
| 20260905215608 | 74 | 66 | 4.3 | 8.7 | 0.00 | 0.00 | 0.00 | 93 | 1015.5 |
| 20260905215104 | 74 | 121 | 3.5 | 6.1 | 0.00 | 0.00 | 0.00 | 93 | 1015.3 |
| 20260905214600 | 74 | 24 | 0.0 | 2.6 | 0.00 | 0.00 | 0.00 | 94 | 1015.0 |
| 20260905214100 | 75 | 348 | 0.9 | 4.3 | 0.00 | 0.00 | 0.00 | 94 | 1015.2 |
| 20260905213601 | 75 | 359 | 0.9 | 2.6 | 0.00 | 0.00 | 0.00 | 93 | 1015.0 |
| 20260905213056 | 75 | 122 | 2.6 | 6.1 | 0.00 | 0.00 | 0.00 | 92 | 1014.9 |
| 20260905212556 | 75 | 46 | 4.3 | 6.1 | 0.00 | 0.00 | 0.00 | 92 | 1014.8 |
| 20260905212056 | 76 | 24 | 0.0 | 2.6 | 0.00 | 0.00 | 0.00 | 92 | 1014.8 |
| 20260905211551 | 76 | 22 | 1.7 | 4.3 | 0.00 | 0.00 | 0.00 | 91 | 1014.8 |
| 20260905211047 | 76 | 172 | 1.7 | 2.6 | 0.00 | 0.00 | 0.00 | 91 | 1015.0 |
| 20260905210543 | 76 | 1 | 1.7 | 2.6 | 0.00 | 0.00 | 0.00 | 91 | 1015.0 |
| 20260905210037 | 77 | 69 | 1.7 | 2.6 | 0.00 | 0.00 | 0.00 | 90 | 1015.1 |
| 20260905205537 | 77 | 3 | 0.9 | 6.1 | 0.00 | 0.00 | 0.00 | 90 | 1014.8 |
| 20260905205036 | 78 | 22 | 0.9 | 6.1 | 0.00 | 0.00 | 0.00 | 87 | 1015.0 |
| 20260905204531 | 81 | 120 | 0.9 | 4.3 | 0.00 | 0.00 | 0.00 | 84 | 1014.8 |
| 20260905204026 | 80 | 213 | 0.9 | 4.3 | 0.00 | 0.00 | 0.00 | 86 | 1014.6 |
| 20260905203526 | 80 | 219 | 0.9 | 2.6 | 0.00 | 0.00 | 0.00 | 85 | 1014.7 |
| 20260905203021 | 79 | 6 | 0.0 | 1.7 | 0.00 | 0.00 | 0.00 | 86 | 1014.7 |
| 20260905202517 | 79 | 153 | 1.7 | 2.6 | 0.00 | 0.00 | 0.00 | 87 | 1014.8 |
| 20260905202012 | 80 | 105 | 1.7 | 2.6 | 0.00 | 0.00 | 0.00 | 85 | 1015.0 |
| 20260905201508 | 80 | 20 | 1.7 | 1.7 | 0.00 | 0.00 | 0.00 | 86 | 1014.7 |
| 20260905201007 | 81 | 53 | 5.2 | 7.0 | 0.00 | 0.00 | 0.00 | 82 | 1014.7 |
| 20260905200503 | 80 | 50 | 1.7 | 6.1 | 0.00 | 0.00 | 0.00 | 85 | 1014.9 |
| 20260905200001 | 82 | 47 | 1.7 | 2.6 | 0.00 | 0.00 | 0.00 | 83 | 1015.0 |
| 20260905195456 | 81 | 55 | 0.9 | 2.6 | 0.00 | 0.00 | 0.00 | 82 | 1014.9 |
| 20260905194952 | 81 | 74 | 0.0 | 0.0 | 0.00 | 0.00 | 0.00 | 84 | 1015.0 |
| 20260905194451 | 80 | 305 | 0.0 | 1.7 | 0.00 | 0.00 | 0.00 | 86 | 1014.9 |
| 20260905193946 | 77 | 30 | 2.6 | 4.3 | 0.00 | 0.00 | 0.00 | 89 | 1015.1 |
| 20260905193446 | 77 | 80 | 1.7 | 2.6 | 0.00 | 0.00 | 0.00 | 90 | 1015.0 |
| 20260905192941 | 77 | 29 | 0.0 | 1.7 | 0.00 | 0.00 | 0.00 | 91 | 1015.0 |
| 20260905192436 | 77 | 121 | 0.0 | 1.7 | 0.00 | 0.00 | 0.00 | 91 | 1015.0 |
| 20260905191932 | 77 | 26 | 0.0 | 0.0 | 0.00 | 0.00 | 0.00 | 91 | 1015.0 |
| 20260905191431 | 77 | 30 | 0.0 | 1.7 | 0.00 | 0.00 | 0.00 | 90 | 1015.1 |
| 20260905190931 | 77 | 58 | 0.0 | 2.6 | 0.00 | 0.00 | 0.00 | 89 | 1015.3 |
| 20260905190429 | 77 | 65 | 4.3 | 4.3 | 0.00 | 0.00 | 0.00 | 89 | 1015.3 |
| 20260905185928 | 77 | 23 | 3.5 | 4.3 | 0.00 | 0.00 | 0.00 | 87 | 1015.2 |
| 20260905185423 | 78 | 57 | 0.9 | 6.1 | 0.00 | 0.00 | 0.00 | 87 | 1015.3 |
| 20260905184921 | 78 | 80 | 1.7 | 4.3 | 0.00 | 0.00 | 0.00 | 87 | 1015.3 |
| 20260905184417 | 77 | 78 | 4.3 | 7.0 | 0.00 | 0.00 | 0.00 | 86 | 1015.3 |
| 20260905183915 | 77 | 189 | 1.7 | 1.7 | 0.00 | 0.00 | 0.00 | 88 | 1015.3 |
| 20260905183410 | 78 | 57 | 3.5 | 4.3 | 0.00 | 0.00 | 0.00 | 88 | 1015.6 |
| 20260905182905 | 77 | 32 | 0.9 | 1.7 | 0.00 | 0.00 | 0.00 | 88 | 1015.4 |
| 20260905182404 | 77 | 176 | 0.9 | 2.6 | 0.00 | 0.00 | 0.00 | 89 | 1015.3 |
| 20260905181901 | 77 | 13 | 0.0 | 2.6 | 0.00 | 0.00 | 0.00 | 90 | 1015.4 |
| 20260905181400 | 77 | 175 | 3.5 | 4.3 | 0.00 | 0.00 | 0.00 | 90 | 1015.3 |
| 20260905180859 | 77 | 58 | 3.5 | 4.3 | 0.00 | 0.00 | 0.00 | 90 | 1015.4 |
| 20260905180354 | 77 | 55 | 0.0 | 1.7 | 0.00 | 0.00 | 0.00 | 89 | 1015.3 |
| 20260905175849 | 77 | 53 | 1.7 | 2.6 | 0.00 | 0.00 | 0.00 | 89 | 1015.2 |
| 20260905175343 | 77 | 101 | 0.9 | 6.1 | 0.00 | 0.00 | 0.00 | 90 | 1015.1 |
| 20260905174838 | 77 | 42 | 0.9 | 2.6 | 0.00 | 0.00 | 0.00 | 89 | 1015.1 |
| 20260905174334 | 77 | 309 | 0.0 | 2.6 | 0.00 | 0.00 | 0.00 | 90 | 1015.2 |
| 20260905173830 | 77 | 8 | 0.9 | 2.6 | 0.00 | 0.00 | 0.00 | 89 | 1015.1 |
| 20260905173326 | 77 | 75 | 0.9 | 2.6 | 0.00 | 0.00 | 0.00 | 88 | 1015.2 |
| 20260905172826 | 78 | 83 | 1.7 | 2.6 | 0.00 | 0.00 | 0.00 | 88 | 1015.2 |
| 20260905172324 | 77 | 62 | 0.0 | 4.3 | 0.00 | 0.00 | 0.00 | 88 | 1015.1 |
| 20260905171820 | 77 | 68 | 1.7 | 4.3 | 0.00 | 0.00 | 0.00 | 88 | 1015.3 |
| 20260905171317 | 77 | 46 | 2.6 | 6.1 | 0.00 | 0.00 | 0.00 | 88 | 1015.3 |
| 20260905170813 | 77 | 41 | 2.6 | 4.3 | 0.00 | 0.00 | 0.00 | 89 | 1015.3 |
| 20260905170308 | 77 | 77 | 2.6 | 4.3 | 0.00 | 0.00 | 0.00 | 89 | 1015.5 |
| 20260905165807 | 76 | 14 | 2.6 | 4.3 | 0.00 | 0.00 | 0.00 | 90 | 1015.6 |
| 20260905165306 | 76 | 351 | 2.6 | 4.3 | 0.00 | 0.00 | 0.00 | 90 | 1015.6 |
| 20260905164803 | 76 | 16 | 0.0 | 0.0 | 0.00 | 0.00 | 0.00 | 90 | 1015.5 |
| 20260905164258 | 76 | 66 | 2.6 | 6.1 | 0.00 | 0.00 | 0.00 | 90 | 1015.5 |
| 20260905163753 | 76 | 337 | 0.9 | 1.7 | 0.00 | 0.00 | 0.00 | 90 | 1015.4 |
| 20260905163249 | 76 | 40 | 4.3 | 6.1 | 0.00 | 0.00 | 0.00 | 90 | 1015.5 |
| 20260905162745 | 76 | 48 | 1.7 | 2.6 | 0.00 | 0.00 | 0.00 | 90 | 1015.6 |
| 20260905162245 | 76 | 31 | 0.0 | 4.3 | 0.00 | 0.00 | 0.00 | 91 | 1015.4 |
| 20260905161739 | 77 | 34 | 0.9 | 4.3 | 0.00 | 0.00 | 0.00 | 90 | 1015.5 |
| 20260905161238 | 77 | 51 | 1.7 | 4.3 | 0.00 | 0.00 | 0.00 | 91 | 1015.2 |
| 20260905160737 | 77 | 154 | 0.9 | 4.3 | 0.00 | 0.00 | 0.00 | 90 | 1015.4 |
| 20260905160237 | 76 | 66 | 0.0 | 0.0 | 0.00 | 0.00 | 0.00 | 92 | 1015.4 |
| 20260905155732 | 76 | 75 | 0.9 | 2.6 | 0.00 | 0.00 | 0.00 | 92 | 1015.5 |
| 20260905155231 | 75 | 58 | 0.9 | 2.6 | 0.00 | 0.00 | 0.00 | 92 | 1015.2 |
| 20260905154725 | 75 | 36 | 0.9 | 4.3 | 0.00 | 0.00 | 0.00 | 92 | 1015.2 |
| 20260905154221 | 75 | 40 | 0.0 | 4.3 | 0.00 | 0.00 | 0.00 | 93 | 1015.3 |
| 20260905153716 | 75 | 18 | 1.7 | 4.3 | 0.00 | 0.00 | 0.00 | 93 | 1015.2 |
| 20260905153212 | 75 | 33 | 0.0 | 1.7 | 0.00 | 0.00 | 0.00 | 93 | 1015.1 |
| 20260905152707 | 75 | 56 | 0.0 | 1.7 | 0.00 | 0.00 | 0.00 | 94 | 1014.9 |
| 20260905152201 | 75 | 153 | 0.0 | 0.0 | 0.00 | 0.00 | 0.00 | 93 | 1015.1 |
| 20260905151655 | 75 | 9 | 0.9 | 4.3 | 0.00 | 0.00 | 0.00 | 94 | 1014.7 |
| 20260905151151 | 75 | 28 | 0.0 | 0.0 | 0.00 | 0.00 | 0.00 | 94 | 1014.9 |
| 20260905150646 | 75 | 36 | 0.0 | 0.0 | 0.00 | 0.00 | 0.00 | 95 | 1014.9 |
| 20260905150145 | 75 | 24 | 0.9 | 2.6 | 0.00 | 0.00 | 0.00 | 94 | 1014.9 |
| 20260905145643 | 75 | 68 | 0.0 | 4.3 | 0.00 | 0.00 | 0.00 | 94 | 1015.0 |
| 20260905145143 | 75 | 51 | 0.0 | 2.6 | 0.00 | 0.00 | 0.00 | 94 | 1014.8 |
| 20260905144637 | 75 | 50 | 0.0 | 0.0 | 0.00 | 0.00 | 0.00 | 94 | 1014.7 |
| 20260905144136 | 75 | 125 | 0.0 | 0.0 | 0.00 | 0.00 | 0.00 | 94 | 1014.9 |
| 20260905143632 | 75 | 54 | 0.0 | 2.6 | 0.00 | 0.00 | 0.00 | 95 | 1014.8 |
| 20260905143131 | 75 | 76 | 0.0 | 1.7 | 0.00 | 0.00 | 0.00 | 95 | 1014.4 |
| 20260905142630 | 74 | 72 | 0.0 | 0.0 | 0.00 | 0.00 | 0.00 | 95 | 1014.6 |
| 20260905142130 | 75 | 31 | 0.9 | 2.6 | 0.00 | 0.00 | 0.00 | 95 | 1014.6 |
| 20260905141630 | 74 | 61 | 0.0 | 0.0 | 0.00 | 0.00 | 0.00 | 96 | 1014.3 |
| 20260905141127 | 74 | 75 | 0.0 | 0.0 | 0.00 | 0.00 | 0.00 | 96 | 1014.5 |
| 20260905140622 | 74 | 140 | 0.9 | 2.6 | 0.00 | 0.00 | 0.00 | 97 | 1014.4 |
| 20260905140121 | 74 | 35 | 0.0 | 0.0 | 0.00 | 0.00 | 0.00 | 98 | 1014.6 |
| 20260905135616 | 74 | 231 | 0.9 | 1.7 | 0.00 | 0.00 | 0.00 | 98 | 1014.4 |
| 20260905135111 | 74 | 51 | 0.0 | 0.0 | 0.00 | 0.00 | 0.00 | 98 | 1014.4 |
| 20260905134607 | 74 | 54 | 0.0 | 0.0 | 0.00 | 0.00 | 0.00 | 99 | 1014.5 |
| 20260905134105 | 73 | 62 | 0.0 | 0.0 | 0.00 | 0.00 | 0.00 | 99 | 1014.3 |
| 20260905133601 | 74 | 43 | 0.0 | 0.0 | 0.00 | 0.00 | 0.00 | 99 | 1014.5 |
| 20260905133100 | 73 | 62 | 0.0 | 0.0 | 0.00 | 0.00 | 0.00 | 99 | 1014.7 |
| 20260905132600 | 73 | 49 | 0.0 | 2.6 | 0.00 | 0.00 | 0.00 | 99 | 1014.8 |
| 20260905132054 | 73 | 80 | 0.0 | 0.0 | 0.00 | 0.00 | 0.00 | 99 | 1014.8 |
| 20260905131550 | 73 | 50 | 0.0 | 0.0 | 0.00 | 0.00 | 0.00 | 99 | 1014.5 |
| 20260905131045 | 74 | 28 | 0.9 | 2.6 | 0.00 | 0.00 | 0.00 | 99 | 1014.4 |
| 20260905130544 | 74 | 55 | 0.0 | 0.0 | 0.00 | 0.00 | 0.00 | 99 | 1014.0 |
| 20260905130040 | 74 | 55 | 0.0 | 0.0 | 0.00 | 0.00 | 0.00 | 99 | 1014.2 |
| 20260905125539 | 74 | 55 | 0.0 | 1.7 | 0.00 | 0.00 | 0.00 | 99 | 1014.2 |
| 20260905125035 | 73 | 120 | 0.9 | 2.6 | 0.00 | 0.00 | 0.00 | 99 | 1013.9 |
| 20260905124531 | 73 | 52 | 0.0 | 0.0 | 0.00 | 0.00 | 0.00 | 99 | 1013.8 |
| 20260905124021 | 73 | 53 | 0.0 | 0.0 | 0.00 | 0.00 | 0.00 | 99 | 1013.7 |
| 20260905123516 | 73 | 53 | 0.0 | 0.0 | 0.00 | 0.00 | 0.00 | 99 | 1013.8 |
| 20260905123014 | 73 | 53 | 0.0 | 1.7 | 0.00 | 0.00 | 0.00 | 99 | 1013.5 |
| 20260905122513 | 73 | 58 | 0.0 | 0.0 | 0.00 | 0.00 | 0.00 | 99 | 1013.4 |
| 20260905122009 | 73 | 58 | 0.0 | 1.7 | 0.00 | 0.00 | 0.00 | 99 | 1013.4 |